DECAYED

STARLINK-1029, 44734 (Decayed)

Orbit data source: Space-Track

STARLINK-1029, 44734 was a payload satellite owned by SpaceX/Seattle (US) in LEO that was launched on Mon, 11 Nov 2019 UTC via an FALCON 9 launch vehicle from the Air Force Eastern Test Range (AFETR). Payload-class satellites include a variety of spacecraft equipped with specific instruments for various scientific and technological missions. These include communications satellites like Starlink; space stations such as the ISS; scientific satellites like the Hubble; Earth observation satellites from companies like Planet Labs, Umbra, and HawkEye 360; GPS; miniature CubeSats for education and research; and military/defense satellites.

Not visible in the next 10 days
Identifier
44734, 2019-074X
Orbit
Decayed
Country
Flag of USUS
Related business
Manufacturer
SpaceX/Seattle
Mission
Decayed Commercial Communications
Bus & Motor
STARLINK, Unknown motor
Mass
260 kg wet, ~248 kg dry
Launch date (UTC)
2019-11-11 (6 years ago)
Launch vehicle
FALCON 9
Launch site
Air Force Eastern Test Range (AFETR)
Object type
Payload
Rocket body
Debris
Shape & HBR
Box + 1 Pan, 10.1 m
Radar Cross Section
13.562 m², Large (>1 m²)

Expand to show TLE details & history
Last TLE update: 7 months ago

TLE from 7 months ago
0 STARLINK-1029
1 44734U 19074X   25291.64177550  .11060745  12403-4  37430-3 0  9995
2 44734  53.0381 311.3623 0004927 194.8650 165.2254 16.44399455329456
Epoch: 2025-10-18T15:24Z
TLE epoch observation values (Epoch: 2025-10-18T15:24:09.403Z)
Latitude
-0.00003°
Longitude
52.95323°
Altitude
158.167 km
Speed
7.811 km/s
True Right ascension
20h 45m 26s
True Declination
0° 00' 00"
Sunlit
Object was in full shadow at epoch
Visualization orbit readout
Latitude
Unknown
Longitude
Unknown
Altitude
Unknown
Speed
Unknown
Apparent Right ascension
Unknown
Apparent Declination
Unknown
Sunlit
N/A
Visualization observer readout
Local Sidereal Time
01:10:36
Azimuth
Unknown
Elevation
Unknown
Doppler factor
Unknown
Orbital elements
Apogee altitude
157.633 km
Perigee altitude
151.196 km
Semi-major axis
6,532.552 km
Eccentricity
0.00049
Inclination
53.0381°
RAAN
311.3623°
Arg. of periapsis
194.865°
True anomaly
165.23979°
Mean anomaly
165.2254°
Eccentric anomaly
165.2326°
Mean motion
4.11073 °/min
Orbital period
87.58 mins
BSTAR
0.0003743
Loading maneuver chart data...
Computing Atmospheric mass density...

Documentation

Showing up to 5 results
|